Time,TemperatureF,DewpointF,PressureIn,WindDirection,WindDirectionDegrees,WindSpeedMPH,WindSpeedGustMPH,Humidity,HourlyPrecipIn,Conditions,Clouds,dailyrainin,SoftwareType,DateUTC
2013-08-22 00:01:00,71.2,61.7,29.14,North,0,0.0,0.0,72,0.00,,,0.00,meteohub,2013-08-22 04:01:00,
2013-08-22 00:02:00,71.1,61.5,29.14,North,0,0.0,0.0,72,0.00,,,0.00,meteohub,2013-08-22 04:02:00,
2013-08-22 00:07:00,70.0,60.6,29.14,North,0,0.0,0.0,72,0.00,,,0.00,meteohub,2013-08-22 04:07:00,
2013-08-22 00:12:00,69.6,59.4,29.14,North,0,0.0,0.0,70,0.00,,,0.00,meteohub,2013-08-22 04:12:00,
2013-08-22 00:17:00,68.9,57.6,29.14,North,0,0.0,0.0,67,0.00,,,0.00,meteohub,2013-08-22 04:17:00,
2013-08-22 00:22:00,68.2,55.9,29.14,North,0,0.0,0.0,65,0.00,,,0.00,meteohub,2013-08-22 04:22:00,
2013-08-22 00:27:00,68.0,55.4,29.14,North,0,0.0,0.0,64,0.00,,,0.00,meteohub,2013-08-22 04:27:00,
2013-08-22 00:32:00,67.8,55.2,29.14,North,0,0.0,0.0,64,0.00,,,0.00,meteohub,2013-08-22 04:32:00,
2013-08-22 00:37:00,67.8,55.2,29.14,North,0,0.0,0.0,64,0.00,,,0.00,meteohub,2013-08-22 04:37:00,
2013-08-22 00:42:00,67.8,55.2,29.14,North,0,0.0,0.0,64,0.00,,,0.00,meteohub,2013-08-22 04:42:00,
2013-08-22 00:47:00,67.5,54.9,29.14,North,0,0.0,0.0,64,0.00,,,0.00,meteohub,2013-08-22 04:47:00,
2013-08-22 00:52:00,67.3,54.7,29.14,North,0,0.0,0.0,64,0.00,,,0.00,meteohub,2013-08-22 04:52:00,
2013-08-22 00:57:00,67.1,54.5,29.14,North,0,0.0,0.0,64,0.00,,,0.00,meteohub,2013-08-22 04:57:00,
2013-08-22 01:02:00,67.1,54.5,29.14,North,0,0.0,0.0,64,0.00,,,0.00,meteohub,2013-08-22 05:02:00,
2013-08-22 01:07:00,66.9,54.0,29.14,North,0,0.0,0.0,63,0.00,,,0.00,meteohub,2013-08-22 05:07:00,
2013-08-22 01:12:00,67.3,53.4,29.14,North,0,0.0,0.0,61,0.00,,,0.00,meteohub,2013-08-22 05:12:00,
2013-08-22 01:17:00,67.6,52.9,29.14,North,0,0.0,0.0,59,0.00,,,0.00,meteohub,2013-08-22 05:17:00,
2013-08-22 01:23:00,67.8,52.9,29.14,North,0,0.0,0.0,59,0.00,,,0.00,meteohub,2013-08-22 05:23:00,
2013-08-22 01:28:00,67.8,52.9,29.14,North,0,0.0,0.0,59,0.00,,,0.00,meteohub,2013-08-22 05:28:00,
2013-08-22 01:33:00,68.0,53.1,29.14,North,0,0.0,0.0,59,0.00,,,0.00,meteohub,2013-08-22 05:33:00,
2013-08-22 01:38:00,68.2,53.8,29.14,North,0,0.0,0.0,60,0.00,,,0.00,meteohub,2013-08-22 05:38:00,
2013-08-22 01:43:00,68.2,53.8,29.14,North,0,0.0,0.0,60,0.00,,,0.00,meteohub,2013-08-22 05:43:00,
2013-08-22 01:48:00,68.2,54.1,29.14,North,0,0.0,0.0,61,0.00,,,0.00,meteohub,2013-08-22 05:48:00,
2013-08-22 01:53:00,68.2,54.1,29.14,North,0,0.0,0.0,61,0.00,,,0.00,meteohub,2013-08-22 05:53:00,
2013-08-22 01:58:00,68.2,54.7,29.14,North,0,0.0,0.0,62,0.00,,,0.00,meteohub,2013-08-22 05:58:00,
2013-08-22 02:03:00,68.2,54.7,29.14,North,0,0.0,0.0,62,0.00,,,0.00,meteohub,2013-08-22 06:03:00,
2013-08-22 02:08:00,68.0,54.0,29.14,North,0,0.0,0.0,61,0.00,,,0.00,meteohub,2013-08-22 06:08:00,
2013-08-22 02:13:00,67.8,54.0,29.14,North,0,0.0,0.0,61,0.00,,,0.00,meteohub,2013-08-22 06:13:00,
2013-08-22 02:18:00,67.8,54.0,29.14,North,0,0.0,0.0,61,0.00,,,0.00,meteohub,2013-08-22 06:18:00,
2013-08-22 02:23:00,68.0,54.0,29.14,North,0,0.0,0.0,61,0.00,,,0.00,meteohub,2013-08-22 06:23:00,
2013-08-22 02:28:00,68.2,54.1,29.14,North,0,0.0,0.0,61,0.00,,,0.00,meteohub,2013-08-22 06:28:00,
2013-08-22 02:33:00,68.2,54.1,29.14,North,0,0.0,0.0,61,0.00,,,0.00,meteohub,2013-08-22 06:33:00,
2013-08-22 02:38:00,68.2,54.1,29.14,North,0,0.0,0.0,61,0.00,,,0.00,meteohub,2013-08-22 06:38:00,
2013-08-22 02:43:00,68.2,54.1,29.14,North,0,0.0,0.0,61,0.00,,,0.00,meteohub,2013-08-22 06:43:00,
2013-08-22 02:48:00,68.2,54.1,29.14,North,0,0.0,0.0,61,0.00,,,0.00,meteohub,2013-08-22 06:48:00,
2013-08-22 02:53:00,68.0,54.0,29.14,North,0,0.0,0.0,61,0.00,,,0.00,meteohub,2013-08-22 06:53:00,
2013-08-22 02:58:00,68.0,54.5,29.14,North,0,0.0,0.0,62,0.00,,,0.00,meteohub,2013-08-22 06:58:00,
2013-08-22 03:03:00,67.8,54.3,29.14,North,0,0.0,0.0,62,0.00,,,0.00,meteohub,2013-08-22 07:03:00,
2013-08-22 03:08:00,67.6,54.1,29.14,North,0,0.0,0.0,62,0.00,,,0.00,meteohub,2013-08-22 07:08:00,
2013-08-22 03:13:00,67.5,54.5,29.14,North,0,0.0,0.0,63,0.00,,,0.00,meteohub,2013-08-22 07:13:00,
2013-08-22 03:18:00,67.3,54.3,29.14,North,0,0.0,0.0,63,0.00,,,0.00,meteohub,2013-08-22 07:18:00,
2013-08-22 03:23:00,67.1,54.1,29.14,North,0,0.0,0.0,63,0.00,,,0.00,meteohub,2013-08-22 07:23:00,
2013-08-22 03:28:00,66.7,53.8,29.14,North,0,0.0,0.0,63,0.00,,,0.00,meteohub,2013-08-22 07:28:00,
2013-08-22 03:33:00,66.7,53.8,29.14,North,0,0.0,0.0,63,0.00,,,0.00,meteohub,2013-08-22 07:33:00,
2013-08-22 03:38:00,66.4,53.4,29.14,North,0,0.0,0.0,63,0.00,,,0.00,meteohub,2013-08-22 07:38:00,
2013-08-22 03:43:00,66.0,53.1,29.14,North,0,0.0,0.0,63,0.00,,,0.00,meteohub,2013-08-22 07:43:00,
2013-08-22 03:48:00,65.8,52.9,29.14,North,0,0.0,0.0,63,0.00,,,0.00,meteohub,2013-08-22 07:48:00,
2013-08-22 03:53:00,65.5,52.5,29.14,North,0,0.0,0.0,63,0.00,,,0.00,meteohub,2013-08-22 07:53:00,
2013-08-22 03:58:00,65.5,52.5,29.14,North,0,0.0,0.0,63,0.00,,,0.00,meteohub,2013-08-22 07:58:00,
2013-08-22 04:03:00,65.3,52.0,29.14,North,0,0.0,0.0,62,0.00,,,0.00,meteohub,2013-08-22 08:03:00,
2013-08-22 04:08:00,65.1,51.8,29.14,North,0,0.0,0.0,62,0.00,,,0.00,meteohub,2013-08-22 08:08:00,
2013-08-22 04:13:00,64.9,51.6,29.14,North,0,0.0,0.0,62,0.00,,,0.00,meteohub,2013-08-22 08:13:00,
2013-08-22 04:18:00,64.9,51.6,29.14,North,0,0.0,0.0,62,0.00,,,0.00,meteohub,2013-08-22 08:18:00,
2013-08-22 04:23:00,64.9,51.1,29.14,North,0,0.0,0.0,61,0.00,,,0.00,meteohub,2013-08-22 08:23:00,
2013-08-22 04:29:00,64.9,51.1,29.14,North,0,0.0,0.0,61,0.00,,,0.00,meteohub,2013-08-22 08:29:00,
2013-08-22 04:33:00,64.9,51.1,29.14,North,0,0.0,0.0,61,0.00,,,0.00,meteohub,2013-08-22 08:33:00,
2013-08-22 04:39:00,64.8,51.1,29.14,North,0,0.0,0.0,61,0.00,,,0.00,meteohub,2013-08-22 08:39:00,
2013-08-22 04:44:00,64.8,50.5,29.14,North,0,0.0,0.0,60,0.00,,,0.00,meteohub,2013-08-22 08:44:00,
2013-08-22 04:49:00,64.6,50.4,29.14,North,0,0.0,0.0,60,0.00,,,0.00,meteohub,2013-08-22 08:49:00,
2013-08-22 04:54:00,64.6,50.4,29.14,North,0,0.0,0.0,60,0.00,,,0.00,meteohub,2013-08-22 08:54:00,
2013-08-22 04:59:00,64.6,50.0,29.14,North,0,0.0,0.0,59,0.00,,,0.00,meteohub,2013-08-22 08:59:00,
2013-08-22 05:04:00,64.6,50.0,29.14,North,0,0.0,0.0,59,0.00,,,0.00,meteohub,2013-08-22 09:04:00,
2013-08-22 05:09:00,64.6,50.0,29.14,North,0,0.0,0.0,59,0.00,,,0.00,meteohub,2013-08-22 09:09:00,
2013-08-22 05:14:00,64.6,49.5,29.14,North,0,0.0,0.0,58,0.00,,,0.00,meteohub,2013-08-22 09:14:00,
2013-08-22 05:19:00,64.8,49.1,29.14,North,0,0.0,0.0,57,0.00,,,0.00,meteohub,2013-08-22 09:19:00,
2013-08-22 05:24:00,64.8,48.7,29.14,North,0,0.0,0.0,56,0.00,,,0.00,meteohub,2013-08-22 09:24:00,
2013-08-22 05:29:00,64.8,48.7,29.14,North,0,0.0,0.0,56,0.00,,,0.00,meteohub,2013-08-22 09:29:00,
2013-08-22 05:34:00,64.8,48.7,29.14,North,0,0.0,0.0,56,0.00,,,0.00,meteohub,2013-08-22 09:34:00,
2013-08-22 05:39:00,64.8,48.7,29.14,North,0,0.0,0.0,56,0.00,,,0.00,meteohub,2013-08-22 09:39:00,
2013-08-22 05:44:00,64.8,48.2,29.14,North,0,0.0,0.0,55,0.00,,,0.00,meteohub,2013-08-22 09:44:00,
2013-08-22 05:49:00,64.6,48.0,29.14,North,0,0.0,0.0,55,0.00,,,0.00,meteohub,2013-08-22 09:49:00,
2013-08-22 05:54:00,64.6,48.0,29.14,North,0,0.0,0.0,55,0.00,,,0.00,meteohub,2013-08-22 09:54:00,
2013-08-22 05:59:00,64.6,48.0,29.14,North,0,0.0,0.0,55,0.00,,,0.00,meteohub,2013-08-22 09:59:00,
2013-08-22 06:04:00,64.4,47.8,29.14,North,0,0.0,0.0,55,0.00,,,0.00,meteohub,2013-08-22 10:04:00,
2013-08-22 06:09:00,64.4,47.5,29.14,North,0,0.0,0.0,54,0.00,,,0.00,meteohub,2013-08-22 10:09:00,
2013-08-22 06:14:00,64.4,47.5,29.14,North,0,0.0,0.0,54,0.00,,,0.00,meteohub,2013-08-22 10:14:00,
2013-08-22 06:19:00,64.2,47.3,29.14,North,0,0.0,0.0,54,0.00,,,0.00,meteohub,2013-08-22 10:19:00,
2013-08-22 06:24:00,64.2,47.3,29.14,North,0,0.0,0.0,54,0.00,,,0.00,meteohub,2013-08-22 10:24:00,
2013-08-22 06:29:00,64.2,46.8,29.14,North,0,0.0,0.0,53,0.00,,,0.00,meteohub,2013-08-22 10:29:00,
2013-08-22 06:34:00,64.0,46.6,29.14,North,0,0.0,0.0,53,0.00,,,0.00,meteohub,2013-08-22 10:34:00,
2013-08-22 06:39:00,64.0,46.6,29.14,North,0,0.0,0.0,53,0.00,,,0.00,meteohub,2013-08-22 10:39:00,
2013-08-22 06:44:00,64.0,46.6,29.14,North,0,0.0,0.0,53,0.00,,,0.00,meteohub,2013-08-22 10:44:00,
2013-08-22 06:49:00,64.0,46.6,29.14,North,0,0.0,0.0,53,0.00,,,0.00,meteohub,2013-08-22 10:49:00,
2013-08-22 08:27:00,66.7,47.5,29.14,North,0,0.0,0.0,50,0.00,,,0.00,meteohub,2013-08-22 12:27:00,
2013-08-22 08:32:00,66.9,47.7,29.14,North,0,0.0,0.0,50,0.00,,,0.00,meteohub,2013-08-22 12:32:00,
2013-08-22 08:37:00,66.9,47.7,29.14,North,0,0.0,0.0,50,0.00,,,0.00,meteohub,2013-08-22 12:37:00,
2013-08-22 08:42:00,67.1,47.8,29.14,North,0,0.0,0.0,50,0.00,,,0.00,meteohub,2013-08-22 12:42:00,
2013-08-22 08:47:00,67.1,47.8,29.14,North,0,0.0,0.0,50,0.00,,,0.00,meteohub,2013-08-22 12:47:00,
2013-08-22 08:52:00,67.5,48.2,29.14,North,0,0.0,0.0,50,0.00,,,0.00,meteohub,2013-08-22 12:52:00,
2013-08-22 08:57:00,67.6,47.8,29.14,North,0,0.0,0.0,49,0.00,,,0.00,meteohub,2013-08-22 12:57:00,
2013-08-22 09:00:00,67.8,48.0,29.14,North,0,0.0,0.0,49,0.00,,,0.00,meteohub,2013-08-22 13:00:00,
2013-08-22 09:05:00,67.8,48.0,29.14,North,0,0.0,0.0,49,0.00,,,0.00,meteohub,2013-08-22 13:05:00,
2013-08-22 09:10:00,67.8,48.0,29.14,North,0,0.0,0.0,49,0.00,,,0.00,meteohub,2013-08-22 13:10:00,
2013-08-22 09:15:00,68.0,48.2,29.14,North,0,0.0,0.0,49,0.00,,,0.00,meteohub,2013-08-22 13:15:00,
2013-08-22 09:20:00,68.0,48.2,29.14,North,0,0.0,0.0,49,0.00,,,0.00,meteohub,2013-08-22 13:20:00,
2013-08-22 09:25:00,68.2,48.4,29.14,North,0,0.0,0.0,49,0.00,,,0.00,meteohub,2013-08-22 13:25:00,
2013-08-22 09:30:00,68.2,48.4,29.14,North,0,0.0,0.0,49,0.00,,,0.00,meteohub,2013-08-22 13:30:00,
2013-08-22 09:35:00,68.4,48.4,29.14,North,0,0.0,0.0,49,0.00,,,0.00,meteohub,2013-08-22 13:35:00,
2013-08-22 09:40:00,68.5,49.1,29.14,North,0,0.0,0.0,50,0.00,,,0.00,meteohub,2013-08-22 13:40:00,
2013-08-22 09:45:00,68.5,49.1,29.14,North,0,0.0,0.0,50,0.00,,,0.00,meteohub,2013-08-22 13:45:00,
2013-08-22 09:51:00,68.9,48.9,29.14,North,0,0.0,0.0,49,0.00,,,0.00,meteohub,2013-08-22 13:51:00,
2013-08-22 09:56:00,69.1,49.6,29.14,North,0,0.0,0.0,50,0.00,,,0.00,meteohub,2013-08-22 13:56:00,
2013-08-22 10:01:00,69.1,49.6,29.14,North,0,0.0,0.0,50,0.00,,,0.00,meteohub,2013-08-22 14:01:00,
2013-08-22 10:06:00,69.1,50.2,29.14,North,0,0.0,0.0,51,0.00,,,0.00,meteohub,2013-08-22 14:06:00,
2013-08-22 10:11:00,69.3,50.4,29.14,North,0,0.0,0.0,51,0.00,,,0.00,meteohub,2013-08-22 14:11:00,
2013-08-22 10:26:00,69.6,51.3,29.14,North,0,0.0,0.0,52,0.00,,,0.00,meteohub,2013-08-22 14:26:00,
2013-08-22 10:31:00,69.6,51.3,29.14,North,0,0.0,0.0,52,0.00,,,0.00,meteohub,2013-08-22 14:31:00,
2013-08-22 10:36:00,69.6,51.3,29.14,North,0,0.0,0.0,52,0.00,,,0.00,meteohub,2013-08-22 14:36:00,
2013-08-22 10:41:00,69.6,51.8,29.14,North,0,0.0,0.0,53,0.00,,,0.00,meteohub,2013-08-22 14:41:00,
2013-08-22 10:46:00,69.8,52.0,29.14,North,0,0.0,0.0,53,0.00,,,0.00,meteohub,2013-08-22 14:46:00,
2013-08-22 10:51:00,70.2,52.2,29.14,North,0,0.0,0.0,53,0.00,,,0.00,meteohub,2013-08-22 14:51:00,
2013-08-22 10:56:00,70.5,52.0,29.14,North,0,0.0,0.0,52,0.00,,,0.00,meteohub,2013-08-22 14:56:00,
2013-08-22 11:01:00,70.7,52.7,29.14,North,0,0.0,0.0,53,0.00,,,0.00,meteohub,2013-08-22 15:01:00,
2013-08-22 11:06:00,70.5,53.1,29.14,North,0,0.0,0.0,54,0.00,,,0.00,meteohub,2013-08-22 15:06:00,
2013-08-22 11:11:00,70.5,53.1,29.14,North,0,0.0,0.0,54,0.00,,,0.00,meteohub,2013-08-22 15:11:00,
2013-08-22 11:16:00,70.7,53.2,29.14,North,0,0.0,0.0,54,0.00,,,0.00,meteohub,2013-08-22 15:16:00,
2013-08-22 11:21:00,71.1,53.6,29.14,North,0,0.0,0.0,54,0.00,,,0.00,meteohub,2013-08-22 15:21:00,
2013-08-22 11:26:00,71.1,54.1,29.14,North,0,0.0,0.0,55,0.00,,,0.00,meteohub,2013-08-22 15:26:00,
2013-08-22 11:31:00,71.2,54.7,29.14,North,0,0.0,0.0,56,0.00,,,0.00,meteohub,2013-08-22 15:31:00,
2013-08-22 11:36:00,71.4,54.9,29.14,North,0,0.0,0.0,56,0.00,,,0.00,meteohub,2013-08-22 15:36:00,
2013-08-22 11:41:00,72.0,55.4,29.14,North,0,0.0,0.0,56,0.00,,,0.00,meteohub,2013-08-22 15:41:00,
2013-08-22 11:46:00,72.5,56.5,29.14,North,0,0.0,0.0,57,0.00,,,0.00,meteohub,2013-08-22 15:46:00,
2013-08-22 11:51:00,72.7,56.5,29.14,North,0,0.0,0.0,57,0.00,,,0.00,meteohub,2013-08-22 15:51:00,
2013-08-22 11:56:00,72.7,57.0,29.14,North,0,0.0,0.0,58,0.00,,,0.00,meteohub,2013-08-22 15:56:00,
2013-08-22 12:01:00,72.9,57.2,29.14,North,0,0.0,0.0,58,0.00,,,0.00,meteohub,2013-08-22 16:01:00,
2013-08-22 12:06:00,73.0,57.4,29.14,North,0,0.0,0.0,58,0.00,,,0.00,meteohub,2013-08-22 16:06:00,
2013-08-22 12:11:00,73.4,57.7,29.14,North,0,0.0,0.0,58,0.00,,,0.00,meteohub,2013-08-22 16:11:00,
2013-08-22 12:16:00,73.8,58.1,29.14,North,0,0.0,0.0,58,0.00,,,0.00,meteohub,2013-08-22 16:16:00,
2013-08-22 12:21:00,74.1,58.5,29.14,North,0,0.0,0.0,58,0.00,,,0.00,meteohub,2013-08-22 16:21:00,
2013-08-22 12:26:00,74.8,59.5,29.14,North,0,0.0,0.0,59,0.00,,,0.00,meteohub,2013-08-22 16:26:00,
2013-08-22 12:31:00,75.2,59.9,29.14,North,0,0.0,0.0,59,0.00,,,0.00,meteohub,2013-08-22 16:31:00,
2013-08-22 12:36:00,75.2,59.9,29.14,North,0,0.0,0.0,59,0.00,,,0.00,meteohub,2013-08-22 16:36:00,
2013-08-22 12:42:00,75.0,59.7,29.14,North,0,0.0,0.0,59,0.00,,,0.00,meteohub,2013-08-22 16:42:00,
2013-08-22 12:47:00,75.4,59.5,29.14,North,0,0.0,0.0,58,0.00,,,0.00,meteohub,2013-08-22 16:47:00,
2013-08-22 12:52:00,76.1,60.3,29.14,North,0,0.0,0.0,58,0.00,,,0.00,meteohub,2013-08-22 16:52:00,
2013-08-22 12:57:00,76.8,61.9,29.14,North,0,0.0,0.0,60,0.00,,,0.00,meteohub,2013-08-22 16:57:00,
2013-08-22 13:02:00,77.4,62.4,29.14,North,0,0.0,0.0,60,0.00,,,0.00,meteohub,2013-08-22 17:02:00,
2013-08-22 13:07:00,77.7,63.7,29.14,North,0,0.0,0.0,62,0.00,,,0.00,meteohub,2013-08-22 17:07:00,
2013-08-22 13:12:00,77.9,63.3,29.14,North,0,0.0,0.0,61,0.00,,,0.00,meteohub,2013-08-22 17:12:00,
2013-08-22 13:17:00,77.9,64.2,29.14,North,0,0.0,0.0,63,0.00,,,0.00,meteohub,2013-08-22 17:17:00,
2013-08-22 13:22:00,77.7,64.0,29.14,North,0,0.0,0.0,63,0.00,,,0.00,meteohub,2013-08-22 17:22:00,
2013-08-22 13:27:00,77.7,64.0,29.14,North,0,0.0,0.0,63,0.00,,,0.00,meteohub,2013-08-22 17:27:00,
2013-08-22 13:32:00,77.0,63.0,29.14,North,0,0.0,0.0,62,0.00,,,0.00,meteohub,2013-08-22 17:32:00,
2013-08-22 13:37:00,76.5,62.4,29.14,North,0,0.0,0.0,62,0.00,,,0.00,meteohub,2013-08-22 17:37:00,
2013-08-22 13:42:00,76.1,61.7,29.14,North,0,0.0,0.0,61,0.00,,,0.00,meteohub,2013-08-22 17:42:00,
2013-08-22 13:47:00,76.3,61.9,29.14,North,0,0.0,0.0,61,0.00,,,0.00,meteohub,2013-08-22 17:47:00,
2013-08-22 13:52:00,75.9,61.9,29.14,North,0,0.0,0.0,62,0.00,,,0.00,meteohub,2013-08-22 17:52:00,
2013-08-22 13:57:00,75.9,61.5,29.14,North,0,0.0,0.0,61,0.00,,,0.00,meteohub,2013-08-22 17:57:00,
2013-08-22 14:02:00,75.7,61.9,29.14,North,0,0.0,0.0,62,0.00,,,0.00,meteohub,2013-08-22 18:02:00,
2013-08-22 14:07:00,76.1,61.7,29.14,North,0,0.0,0.0,61,0.00,,,0.00,meteohub,2013-08-22 18:07:00,
2013-08-22 14:12:00,76.8,62.8,29.14,North,0,0.0,0.0,62,0.00,,,0.00,meteohub,2013-08-22 18:12:00,
2013-08-22 14:17:00,76.8,63.3,29.14,North,0,0.0,0.0,63,0.00,,,0.00,meteohub,2013-08-22 18:17:00,
2013-08-22 14:22:00,76.8,63.3,29.14,North,0,0.0,0.0,63,0.00,,,0.00,meteohub,2013-08-22 18:22:00,
2013-08-22 14:27:00,77.0,63.5,29.14,North,0,0.0,0.0,63,0.00,,,0.00,meteohub,2013-08-22 18:27:00,
2013-08-22 14:32:00,77.2,63.7,29.14,North,0,0.0,0.0,63,0.00,,,0.00,meteohub,2013-08-22 18:32:00,
2013-08-22 14:37:00,77.0,63.5,29.14,North,0,0.0,0.0,63,0.00,,,0.00,meteohub,2013-08-22 18:37:00,
2013-08-22 14:42:00,77.2,63.1,29.14,North,0,0.0,0.0,62,0.00,,,0.00,meteohub,2013-08-22 18:42:00,
2013-08-22 14:47:00,77.2,62.2,29.14,North,0,0.0,0.0,60,0.00,,,0.00,meteohub,2013-08-22 18:47:00,
2013-08-22 14:53:00,77.2,61.3,29.14,North,0,0.0,0.0,58,0.00,,,0.00,meteohub,2013-08-22 18:53:00,
2013-08-22 14:58:00,77.5,60.6,29.14,North,0,0.0,0.0,56,0.00,,,0.00,meteohub,2013-08-22 18:58:00,
2013-08-22 15:03:00,77.9,60.4,29.14,North,0,0.0,0.0,55,0.00,,,0.00,meteohub,2013-08-22 19:03:00,
2013-08-22 15:08:00,78.1,60.1,29.14,North,0,0.0,0.0,54,0.00,,,0.00,meteohub,2013-08-22 19:08:00,
2013-08-22 15:13:00,78.1,59.5,29.14,North,0,0.0,0.0,53,0.00,,,0.00,meteohub,2013-08-22 19:13:00,
2013-08-22 15:18:00,77.9,58.3,29.14,North,0,0.0,0.0,51,0.00,,,0.00,meteohub,2013-08-22 19:18:00,
2013-08-22 15:23:00,77.4,57.7,29.14,North,0,0.0,0.0,51,0.00,,,0.00,meteohub,2013-08-22 19:23:00,
2013-08-22 15:28:00,77.4,58.3,29.14,North,0,0.0,0.0,52,0.00,,,0.00,meteohub,2013-08-22 19:28:00,
2013-08-22 15:33:00,77.4,57.7,29.14,North,0,0.0,0.0,51,0.00,,,0.00,meteohub,2013-08-22 19:33:00,
2013-08-22 15:38:00,77.4,57.7,29.14,North,0,0.0,0.0,51,0.00,,,0.00,meteohub,2013-08-22 19:38:00,
2013-08-22 15:43:00,77.5,57.9,29.14,North,0,0.0,0.0,51,0.00,,,0.00,meteohub,2013-08-22 19:43:00,
2013-08-22 15:48:00,77.5,57.9,29.14,North,0,0.0,0.0,51,0.00,,,0.00,meteohub,2013-08-22 19:48:00,
2013-08-22 15:53:00,77.7,57.6,29.14,North,0,0.0,0.0,50,0.00,,,0.00,meteohub,2013-08-22 19:53:00,
2013-08-22 15:58:00,77.9,58.3,29.14,North,0,0.0,0.0,51,0.00,,,0.00,meteohub,2013-08-22 19:58:00,
2013-08-22 16:03:00,77.9,57.7,29.14,North,0,0.0,0.0,50,0.00,,,0.00,meteohub,2013-08-22 20:03:00,
2013-08-22 16:08:00,77.9,57.7,29.14,North,0,0.0,0.0,50,0.00,,,0.00,meteohub,2013-08-22 20:08:00,
2013-08-22 16:13:00,78.3,58.6,29.14,North,0,0.0,0.0,51,0.00,,,0.00,meteohub,2013-08-22 20:13:00,
2013-08-22 16:18:00,78.3,58.1,29.14,North,0,0.0,0.0,50,0.00,,,0.00,meteohub,2013-08-22 20:18:00,
2013-08-22 16:23:00,78.6,58.5,29.14,North,0,0.0,0.0,50,0.00,,,0.00,meteohub,2013-08-22 20:23:00,
2013-08-22 16:28:00,79.0,57.6,29.14,North,0,0.0,0.0,48,0.00,,,0.00,meteohub,2013-08-22 20:28:00,
2013-08-22 16:33:00,79.2,57.7,29.14,North,0,0.0,0.0,48,0.00,,,0.00,meteohub,2013-08-22 20:33:00,
2013-08-22 16:38:00,79.3,57.9,29.14,North,0,0.0,0.0,48,0.00,,,0.00,meteohub,2013-08-22 20:38:00,
2013-08-22 16:43:00,79.3,57.9,29.14,North,0,0.0,0.0,48,0.00,,,0.00,meteohub,2013-08-22 20:43:00,
2013-08-22 16:48:00,79.5,57.6,29.14,North,0,0.0,0.0,47,0.00,,,0.00,meteohub,2013-08-22 20:48:00,
2013-08-22 16:53:00,79.5,56.8,29.14,North,0,0.0,0.0,46,0.00,,,0.00,meteohub,2013-08-22 20:53:00,
2013-08-22 16:58:00,79.7,57.0,29.14,North,0,0.0,0.0,46,0.00,,,0.00,meteohub,2013-08-22 20:58:00,
2013-08-22 17:03:00,79.7,57.0,29.14,North,0,0.0,0.0,46,0.00,,,0.00,meteohub,2013-08-22 21:03:00,
2013-08-22 17:08:00,79.5,55.8,29.14,North,0,0.0,0.0,44,0.00,,,0.00,meteohub,2013-08-22 21:08:00,
2013-08-22 17:13:00,79.2,56.7,29.14,North,0,0.0,0.0,46,0.00,,,0.00,meteohub,2013-08-22 21:13:00,
2013-08-22 17:18:00,79.3,56.1,29.14,North,0,0.0,0.0,45,0.00,,,0.00,meteohub,2013-08-22 21:18:00,
2013-08-22 17:23:00,79.3,56.8,29.14,North,0,0.0,0.0,46,0.00,,,0.00,meteohub,2013-08-22 21:23:00,
2013-08-22 17:28:00,79.2,55.4,29.14,North,0,0.0,0.0,44,0.00,,,0.00,meteohub,2013-08-22 21:28:00,
2013-08-22 17:33:00,79.3,55.6,29.14,North,0,0.0,0.0,44,0.00,,,0.00,meteohub,2013-08-22 21:33:00,
2013-08-22 17:38:00,79.3,55.6,29.14,North,0,0.0,0.0,44,0.00,,,0.00,meteohub,2013-08-22 21:38:00,
2013-08-22 17:43:00,79.5,55.8,29.14,North,0,0.0,0.0,44,0.00,,,0.00,meteohub,2013-08-22 21:43:00,
2013-08-22 17:48:00,79.5,55.8,29.14,North,0,0.0,0.0,44,0.00,,,0.00,meteohub,2013-08-22 21:48:00,
2013-08-22 17:53:00,79.7,55.9,29.14,North,0,0.0,0.0,44,0.00,,,0.00,meteohub,2013-08-22 21:53:00,
2013-08-22 17:59:00,79.5,55.0,29.14,North,0,0.0,0.0,43,0.00,,,0.00,meteohub,2013-08-22 21:59:00,
2013-08-22 18:04:00,79.3,54.9,29.14,North,0,0.0,0.0,43,0.00,,,0.00,meteohub,2013-08-22 22:04:00,
2013-08-22 18:09:00,79.3,54.9,29.14,North,0,0.0,0.0,43,0.00,,,0.00,meteohub,2013-08-22 22:09:00,
2013-08-22 18:14:00,79.2,54.7,29.14,North,0,0.0,0.0,43,0.00,,,0.00,meteohub,2013-08-22 22:14:00,
2013-08-22 18:19:00,79.3,55.6,29.14,North,0,0.0,0.0,44,0.00,,,0.00,meteohub,2013-08-22 22:19:00,
2013-08-22 18:24:00,79.3,55.6,29.14,North,0,0.0,0.0,44,0.00,,,0.00,meteohub,2013-08-22 22:24:00,
2013-08-22 18:29:00,79.0,55.2,29.14,North,0,0.0,0.0,44,0.00,,,0.00,meteohub,2013-08-22 22:29:00,
2013-08-22 18:34:00,78.6,55.6,29.14,North,0,0.0,0.0,45,0.00,,,0.00,meteohub,2013-08-22 22:34:00,
2013-08-22 18:39:00,78.3,55.2,29.14,North,0,0.0,0.0,45,0.00,,,0.00,meteohub,2013-08-22 22:39:00,
2013-08-22 18:44:00,77.7,55.2,29.14,North,0,0.0,0.0,46,0.00,,,0.00,meteohub,2013-08-22 22:44:00,
2013-08-22 18:49:00,77.0,54.7,29.14,North,0,0.0,0.0,46,0.00,,,0.00,meteohub,2013-08-22 22:49:00,
2013-08-22 18:54:00,76.5,54.7,29.14,North,0,0.0,0.0,47,0.00,,,0.00,meteohub,2013-08-22 22:54:00,
2013-08-22 18:59:00,75.9,54.9,29.14,North,0,0.0,0.0,48,0.00,,,0.00,meteohub,2013-08-22 22:59:00,
2013-08-22 19:04:00,75.4,54.3,29.14,North,0,0.0,0.0,48,0.00,,,0.00,meteohub,2013-08-22 23:04:00,
2013-08-22 19:09:00,75.0,54.5,29.14,North,0,0.0,0.0,49,0.00,,,0.00,meteohub,2013-08-22 23:09:00,
2013-08-22 19:14:00,74.7,54.9,29.14,North,0,0.0,0.0,50,0.00,,,0.00,meteohub,2013-08-22 23:14:00,
2013-08-22 19:19:00,74.3,54.5,29.14,North,0,0.0,0.0,50,0.00,,,0.00,meteohub,2013-08-22 23:19:00,
2013-08-22 19:24:00,73.8,54.5,29.14,North,0,0.0,0.0,51,0.00,,,0.00,meteohub,2013-08-22 23:24:00,
2013-08-22 19:29:00,73.2,54.5,29.14,North,0,0.0,0.0,52,0.00,,,0.00,meteohub,2013-08-22 23:29:00,
2013-08-22 19:34:00,73.0,54.3,29.14,North,0,0.0,0.0,52,0.00,,,0.00,meteohub,2013-08-22 23:34:00,
2013-08-22 19:39:00,72.5,54.3,29.14,North,0,0.0,0.0,53,0.00,,,0.00,meteohub,2013-08-22 23:39:00,
2013-08-22 19:44:00,72.0,54.3,29.14,North,0,0.0,0.0,54,0.00,,,0.00,meteohub,2013-08-22 23:44:00,
2013-08-22 19:49:00,71.4,54.5,29.14,North,0,0.0,0.0,55,0.00,,,0.00,meteohub,2013-08-22 23:49:00,
2013-08-22 19:54:00,71.1,54.5,29.14,North,0,0.0,0.0,56,0.00,,,0.00,meteohub,2013-08-22 23:54:00,
2013-08-22 19:59:00,70.7,54.3,29.14,North,0,0.0,0.0,56,0.00,,,0.00,meteohub,2013-08-22 23:59:00,
2013-08-22 20:04:00,70.3,54.3,29.14,North,0,0.0,0.0,57,0.00,,,0.00,meteohub,2013-08-23 00:04:00,
2013-08-22 20:09:00,69.8,54.3,29.14,North,0,0.0,0.0,58,0.00,,,0.00,meteohub,2013-08-23 00:09:00,
2013-08-22 20:14:00,69.4,54.5,29.14,North,0,0.0,0.0,59,0.00,,,0.00,meteohub,2013-08-23 00:14:00,
2013-08-22 20:19:00,68.7,54.7,29.14,North,0,0.0,0.0,61,0.00,,,0.00,meteohub,2013-08-23 00:19:00,
2013-08-22 20:24:00,68.2,54.7,29.14,North,0,0.0,0.0,62,0.00,,,0.00,meteohub,2013-08-23 00:24:00,
2013-08-22 20:29:00,67.8,54.7,29.14,North,0,0.0,0.0,63,0.00,,,0.00,meteohub,2013-08-23 00:29:00,
2013-08-22 20:34:00,67.5,54.9,29.14,North,0,0.0,0.0,64,0.00,,,0.00,meteohub,2013-08-23 00:34:00,
2013-08-22 20:39:00,67.1,54.5,29.14,North,0,0.0,0.0,64,0.00,,,0.00,meteohub,2013-08-23 00:39:00,
2013-08-22 20:44:00,66.7,55.0,29.14,North,0,0.0,0.0,66,0.00,,,0.00,meteohub,2013-08-23 00:44:00,
2013-08-22 20:49:00,66.4,54.7,29.14,North,0,0.0,0.0,66,0.00,,,0.00,meteohub,2013-08-23 00:49:00,
2013-08-22 20:54:00,66.0,54.7,29.14,North,0,0.0,0.0,67,0.00,,,0.00,meteohub,2013-08-23 00:54:00,
2013-08-22 20:59:00,65.8,55.0,29.14,North,0,0.0,0.0,68,0.00,,,0.00,meteohub,2013-08-23 00:59:00,
2013-08-22 21:04:00,65.5,55.0,29.14,North,0,0.0,0.0,69,0.00,,,0.00,meteohub,2013-08-23 01:04:00,
2013-08-22 21:09:00,65.3,54.9,29.14,North,0,0.0,0.0,69,0.00,,,0.00,meteohub,2013-08-23 01:09:00,
2013-08-22 21:14:00,64.9,54.9,29.14,North,0,0.0,0.0,70,0.00,,,0.00,meteohub,2013-08-23 01:14:00,
2013-08-22 21:19:00,64.8,55.2,29.14,North,0,0.0,0.0,71,0.00,,,0.00,meteohub,2013-08-23 01:19:00,
2013-08-22 21:24:00,64.6,55.0,29.14,North,0,0.0,0.0,71,0.00,,,0.00,meteohub,2013-08-23 01:24:00,
2013-08-22 21:29:00,64.2,54.7,29.14,North,0,0.0,0.0,71,0.00,,,0.00,meteohub,2013-08-23 01:29:00,
2013-08-22 21:34:00,63.9,54.3,29.14,North,0,0.0,0.0,71,0.00,,,0.00,meteohub,2013-08-23 01:34:00,
2013-08-22 21:39:00,63.7,54.5,29.14,North,0,0.0,0.0,72,0.00,,,0.00,meteohub,2013-08-23 01:39:00,
2013-08-22 21:44:00,63.1,54.0,29.14,North,0,0.0,0.0,72,0.00,,,0.00,meteohub,2013-08-23 01:44:00,
2013-08-22 21:50:00,63.0,53.8,29.14,North,0,0.0,0.0,72,0.00,,,0.00,meteohub,2013-08-23 01:50:00,
2013-08-22 21:55:00,62.6,53.4,29.14,North,0,0.0,0.0,72,0.00,,,0.00,meteohub,2013-08-23 01:55:00,
2013-08-22 22:00:00,62.4,53.2,29.14,North,0,0.0,0.0,72,0.00,,,0.00,meteohub,2013-08-23 02:00:00,
2013-08-22 22:05:00,62.1,52.9,29.14,North,0,0.0,0.0,72,0.00,,,0.00,meteohub,2013-08-23 02:05:00,
2013-08-22 22:10:00,61.9,52.7,29.14,North,0,0.0,0.0,72,0.00,,,0.00,meteohub,2013-08-23 02:10:00,
2013-08-22 22:15:00,61.7,52.5,29.14,North,0,0.0,0.0,72,0.00,,,0.00,meteohub,2013-08-23 02:15:00,
2013-08-22 22:20:00,61.3,52.2,29.14,North,0,0.0,0.0,72,0.00,,,0.00,meteohub,2013-08-23 02:20:00,
2013-08-22 22:25:00,61.3,52.2,29.14,North,0,0.0,0.0,72,0.00,,,0.00,meteohub,2013-08-23 02:25:00,
2013-08-22 22:30:00,61.2,52.5,29.14,North,0,0.0,0.0,73,0.00,,,0.00,meteohub,2013-08-23 02:30:00,
2013-08-22 22:35:00,61.2,52.5,29.14,North,0,0.0,0.0,73,0.00,,,0.00,meteohub,2013-08-23 02:35:00,
2013-08-22 22:40:00,61.0,52.3,29.14,North,0,0.0,0.0,73,0.00,,,0.00,meteohub,2013-08-23 02:40:00,
2013-08-22 22:45:00,60.8,52.2,29.14,North,0,0.0,0.0,73,0.00,,,0.00,meteohub,2013-08-23 02:45:00,
2013-08-22 22:50:00,61.0,52.3,29.14,North,0,0.0,0.0,73,0.00,,,0.00,meteohub,2013-08-23 02:50:00,
2013-08-22 22:55:00,60.8,52.2,29.14,North,0,0.0,0.0,73,0.00,,,0.00,meteohub,2013-08-23 02:55:00,
2013-08-22 23:00:00,60.8,52.2,29.14,North,0,0.0,0.0,73,0.00,,,0.00,meteohub,2013-08-23 03:00:00,
2013-08-22 23:05:00,60.8,52.2,29.14,North,0,0.0,0.0,73,0.00,,,0.00,meteohub,2013-08-23 03:05:00,
2013-08-22 23:10:00,60.6,52.0,29.14,North,0,0.0,0.0,73,0.00,,,0.00,meteohub,2013-08-23 03:10:00,
2013-08-22 23:15:00,60.6,52.0,29.14,North,0,0.0,0.0,73,0.00,,,0.00,meteohub,2013-08-23 03:15:00,
2013-08-22 23:20:00,60.6,52.0,29.14,North,0,0.0,0.0,73,0.00,,,0.00,meteohub,2013-08-23 03:20:00,
2013-08-22 23:25:00,60.6,52.0,29.14,North,0,0.0,0.0,73,0.00,,,0.00,meteohub,2013-08-23 03:25:00,
2013-08-22 23:30:00,60.3,51.6,29.14,North,0,0.0,0.0,73,0.00,,,0.00,meteohub,2013-08-23 03:30:00,
2013-08-22 23:35:00,60.1,51.4,29.14,North,0,0.0,0.0,73,0.00,,,0.00,meteohub,2013-08-23 03:35:00,
2013-08-22 23:40:00,59.7,51.1,29.14,North,0,0.0,0.0,73,0.00,,,0.00,meteohub,2013-08-23 03:40:00,
2013-08-22 23:45:00,59.5,50.9,29.14,North,0,0.0,0.0,73,0.00,,,0.00,meteohub,2013-08-23 03:45:00,
2013-08-22 23:50:00,59.4,50.7,29.14,North,0,0.0,0.0,73,0.00,,,0.00,meteohub,2013-08-23 03:50:00,
2013-08-22 23:55:00,59.0,50.7,29.14,North,0,0.0,0.0,74,0.00,,,0.00,meteohub,2013-08-23 03:55:00,